Home   Weather   Abidjan   Past weeks

Flag for Cote d'Ivoire (Ivory Coast) Past Weather in Abidjan, Cote d'Ivoire (Ivory Coast) — Yesterday and Last 2 Weeks

Now
79 °F

Broken clouds.


Feels Like: 82 °F
Forecast: 72 / 84 °F
Wind: 3 mph from Southwest

Location: Abidjan Airport

Current Time: Aug 30, 2016 at 11:03:45 AM

Latest Report: Aug 30, 2016 at 10:30 AM


Visibility: 6 mi

Pressure: 30.01 "Hg

Humidity: 84%

Dew Point: 73 °F

Location of AbidjanLocation

Past Weather in Abidjan — Graph

°F

Abidjan Temperature Yesterday

Maximum temperature yesterday: 82 °F (at 12:00 PM)
Minimum temperature yesterday: 72 °F (at 5:30 AM)
Average temperature yesterday: 76 °F

High & Low Weather Summary for the Past Weeks

 TemperatureHumidityPressure
High82 °F (Aug 18, 11:00 AM)100% (Aug 16, 2:00 AM)30.01 "Hg (Aug 16, 2:00 AM)
Low72 °F (Aug 16, 2:00 AM)70% (Aug 16, 12:00 PM)29.83 "Hg (Aug 27, 4:00 PM)
Average77 °F90%29.94 "Hg
* Reported Aug 15 10:00 AM — Aug 30 10:00 AM, Abidjan, Weather by CustomWeather, © 2016

Note: Actual official high and low records may vary slightly from our data, if they occured in-between our weather recording intervals... More about our weather records

Advertising

Abidjan Weather History for the Previous 24 Hours

Scroll right to see more
 ConditionsComfort  
Time TempWeatherWind HumidityBarometerVisibility
10:00 AM
Tue, Aug 30
79 °FBroken clouds.5 mph84%30.01 "Hg5 mi
9:30 AM79 °FBroken clouds.5 mph84%30.01 "Hg5 mi
9:00 AM77 °FPartly sunny.7 mph89%30.01 "Hg4 mi
8:30 AM77 °FPartly sunny.7 mph89%30.01 "Hg4 mi
8:00 AM77 °FPartly sunny.7 mph94%30.01 "Hg4 mi
7:30 AM75 °FScattered clouds.3 mph94%29.98 "Hg6 mi
7:00 AM75 °FScattered clouds.2 mph94%29.98 "Hg6 mi
6:30 AM73 °FPassing clouds.2 mph100%29.95 "Hg6 mi
6:00 AM75 °FPassing clouds.2 mph94%29.95 "HgN/A
5:30 AM75 °FPassing clouds.5 mph94%29.95 "HgN/A
5:00 AM75 °FPassing clouds.6 mph94%29.95 "HgN/A
4:30 AM73 °FPassing clouds.5 mph100%29.92 "HgN/A
4:00 AM73 °FPassing clouds.5 mph100%29.92 "HgN/A
3:30 AM75 °FPassing clouds.3 mph94%29.92 "HgN/A
3:00 AM75 °FPartly cloudy.1 mph94%29.92 "HgN/A
2:30 AM73 °FPassing clouds.1 mph100%29.92 "HgN/A
2:00 AM73 °FPassing clouds.1 mph100%29.92 "HgN/A
1:30 AM73 °FPassing clouds.3 mph100%29.92 "HgN/A
1:00 AM73 °FPassing clouds.2 mph100%29.95 "HgN/A
12:30 AM73 °FPassing clouds.3 mph100%29.95 "Hg6 mi
12:00 AM75 °FPassing clouds.2 mph94%29.95 "Hg6 mi
11:30 PM
Mon, Aug 29
75 °FPassing clouds.3 mph94%29.95 "HgN/A
11:00 PM73 °FPassing clouds.3 mph100%29.95 "HgN/A
10:30 PM73 °FPassing clouds.3 mph100%29.98 "HgN/A
10:00 PM75 °FPassing clouds.3 mph94%29.95 "HgN/A
9:30 PM75 °FPassing clouds.5 mph94%29.95 "HgN/A
9:00 PM75 °FPassing clouds.2 mph94%29.95 "HgN/A
8:30 PM75 °FPassing clouds.6 mph94%29.95 "HgN/A
8:00 PM75 °FPassing clouds.3 mph94%29.95 "HgN/A
7:30 PM75 °FPassing clouds.2 mph94%29.92 "HgN/A
7:00 PM75 °FPassing clouds.5 mph94%29.92 "HgN/A
6:30 PM77 °FPassing clouds.7 mph89%29.92 "HgN/A
6:00 PM77 °FScattered clouds.7 mph89%29.92 "HgN/A
5:30 PM79 °FScattered clouds.7 mph84%29.92 "HgN/A
5:00 PM79 °FScattered clouds.6 mph84%29.92 "Hg5 mi
4:30 PM79 °FBroken clouds.8 mph84%29.92 "Hg5 mi
4:00 PM77 °FDrizzle. Broken clouds.7 mph89%29.92 "Hg5 mi
3:30 PM79 °FDrizzle. Broken clouds.9 mph84%29.92 "Hg5 mi
3:00 PM81 °FBroken clouds.12 mph84%29.92 "HgN/A
2:30 PM81 °FBroken clouds.14 mph84%29.92 "HgN/A
2:00 PM81 °FBroken clouds.14 mph79%29.92 "HgN/A
1:30 PM82 °FBroken clouds.13 mph74%29.95 "HgN/A
1:00 PM81 °FBroken clouds.12 mph84%29.98 "HgN/A
12:30 PM82 °FBroken clouds.10 mph74%29.98 "HgN/A
12:00 PM82 °FScattered clouds.10 mph74%30.01 "HgN/A
11:30 AM81 °FBroken clouds.12 mph79%30.01 "HgN/A
11:00 AM81 °FBroken clouds.12 mph79%30.01 "HgN/A
Weather by CustomWeather, © 2016

See weather overviewHow to use our weather pages